| time (UTC) | temp C | wind direction | speed KPH | gust KPH | rain 1hr cm | rain 24hr cm | rain mn cm | humidity % | barometer mb |
| 20260902050226 | 12 | 210 | 11.3 | 0.0 | 0.00 | 0.00 | 0.00 | 87 | 1021.0 |
| 20260902043224 | 12 | 230 | 11.3 | 0.0 | 0.00 | 0.00 | 0.00 | 87 | 1021.0 |
| 20260902042458 | 11 | 230 | 8.0 | 0.0 | 0.00 | 0.00 | 0.00 | 93 | |
| 20260902040238 | 11 | 240 | 8.0 | 0.0 | 0.00 | 0.00 | 0.00 | 87 | 1021.0 |
| 20260902033224 | 12 | 230 | 12.9 | 0.0 | 0.00 | 0.00 | 0.00 | 87 | 1021.0 |
| 20260902032608 | 12 | 220 | 14.5 | 0.0 | 0.00 | 0.00 | 0.00 | 87 | |
| 20260902032155 | 12 | 220 | 14.5 | 0.0 | 0.00 | 0.00 | 0.00 | 87 | |
| 20260902030239 | 12 | 220 | 12.9 | 0.0 | 0.00 | 0.00 | 0.00 | 87 | 1021.0 |
| 20260902023223 | 12 | 220 | 9.7 | 0.0 | 0.00 | 0.00 | 0.00 | 87 | 1021.0 |
| 20260902022355 | 12 | 220 | 11.3 | 0.0 | 0.00 | 0.00 | 0.00 | 82 | |
| 20260902020233 | 12 | 220 | 11.3 | 0.0 | 0.00 | 0.00 | 0.00 | 87 | 1021.0 |
| 20260902013223 | 11 | 220 | 11.3 | 0.0 | 0.00 | 0.00 | 0.00 | 87 | 1021.0 |
| 20260902012355 | 12 | 220 | 11.3 | 0.0 | 0.00 | 0.00 | 0.00 | 87 | |
| 20260902010235 | 12 | 220 | 11.3 | 0.0 | 0.00 | 0.00 | 0.00 | 81 | 1021.0 |
| 20260902003224 | 12 | 0 | 3.2 | 0.0 | 0.00 | 0.00 | 0.00 | 81 | 1021.0 |
| 20260902002156 | 12 | 0 | 8.0 | 0.0 | 0.00 | 0.00 | 0.00 | 87 | |
| 20260902000241 | 12 | 230 | 8.0 | 0.0 | 0.00 | 0.00 | 0.00 | 87 | 1021.0 |
| 20260901233224 | 12 | 210 | 8.0 | 0.0 | 0.00 | 0.00 | 0.00 | 82 | 1021.0 |
| 20260901232339 | 12 | 220 | 8.0 | 0.0 | 0.00 | 0.00 | 0.00 | 87 | |
| 20260901230234 | 11 | 230 | 9.7 | 0.0 | 0.00 | 0.00 | 0.00 | 87 | 1021.0 |
| 20260901223224 | 13 | 220 | 9.7 | 0.0 | 0.00 | 0.00 | 0.00 | 71 | 1021.0 |
| 20260901222442 | 15 | 190 | 8.0 | 0.0 | 0.00 | 0.00 | 0.00 | 72 | |
| 20260901220236 | 15 | 190 | 4.8 | 0.0 | 0.00 | 0.00 | 0.00 | 72 | 1021.0 |
| 20260901213224 | 12 | 220 | 11.3 | 0.0 | 0.00 | 0.00 | 0.00 | 87 | 1021.0 |
| 20260901212155 | 13 | 230 | 11.3 | 0.0 | 0.00 | 0.00 | 0.00 | 76 | |
| 20260901210240 | 13 | 240 | 8.0 | 0.0 | 0.00 | 0.00 | 0.00 | 82 | 1021.0 |
| 20260901203224 | 16 | 0 | 3.2 | 0.0 | 0.00 | 0.00 | 0.00 | 67 | 1021.0 |
| 20260901202354 | 16 | 190 | 8.0 | 0.0 | 0.00 | 0.00 | 0.00 | 72 | |
| 20260901200233 | 17 | 190 | 4.8 | 0.0 | 0.00 | 0.00 | 0.00 | 67 | 1021.0 |
| 20260901193223 | 17 | 160 | 3.2 | 0.0 | 0.00 | 0.00 | 0.00 | 63 | 1021.0 |
| 20260901192355 | 17 | 0 | 3.2 | 0.0 | 0.00 | 0.00 | 0.00 | 59 | |
| 20260901190232 | 17 | 0 | 3.2 | 0.0 | 0.00 | 0.00 | 0.00 | 55 | 1020.0 |
| 20260901183231 | 18 | 250 | 8.0 | 0.0 | 0.00 | 0.00 | 0.00 | 52 | 1020.0 |
| 20260901182155 | 18 | 260 | 11.3 | 0.0 | 0.00 | 0.00 | 0.00 | 55 | |
| 20260901180232 | 18 | 260 | 9.7 | 0.0 | 0.00 | 0.00 | 0.00 | 55 | 1020.0 |
| 20260901173224 | 20 | 240 | 9.7 | 0.0 | 0.00 | 0.00 | 0.00 | 52 | 1020.0 |
| 20260901172355 | 22 | 260 | 11.3 | 0.0 | 0.00 | 0.00 | 0.00 | 49 | |
| 20260901170240 | 21 | 260 | 9.7 | 0.0 | 0.00 | 0.00 | 0.00 | 52 | 1020.0 |
| 20260901163230 | 22 | 270 | 12.9 | 0.0 | 0.00 | 0.00 | 0.00 | 46 | 1020.0 |
| 20260901162459 | 22 | 260 | 19.3 | 0.0 | 0.00 | 0.00 | 0.00 | 46 | |
| 20260901160232 | 22 | 270 | 16.1 | 0.0 | 0.00 | 0.00 | 0.00 | 43 | 1020.0 |
| 20260901153230 | 22 | 270 | 16.1 | 0.0 | 0.00 | 0.00 | 0.00 | 40 | 1020.0 |
| 20260901152156 | 22 | 250 | 22.5 | 0.0 | 0.00 | 0.00 | 0.00 | 40 | |
| 20260901150232 | 22 | 250 | 22.5 | 0.0 | 0.00 | 0.00 | 0.00 | 43 | 1019.0 |
| 20260901143230 | 22 | 280 | 14.5 | 0.0 | 0.00 | 0.00 | 0.00 | 43 | 1019.0 |
| 20260901142355 | 22 | 260 | 22.5 | 0.0 | 0.00 | 0.00 | 0.00 | 40 | |
| 20260901140232 | 22 | 260 | 22.5 | 0.0 | 0.00 | 0.00 | 0.00 | 43 | 1019.0 |
| 20260901133231 | 23 | 260 | 24.1 | 0.0 | 0.00 | 0.00 | 0.00 | 38 | 1019.0 |
| 20260901132256 | 23 | 260 | 25.7 | 0.0 | 0.00 | 0.00 | 0.00 | 38 | |
| 20260901130240 | 23 | 260 | 24.1 | 0.0 | 0.00 | 0.00 | 0.00 | 38 | 1019.0 |
| 20260901123238 | 22 | 250 | 20.9 | 0.0 | 0.00 | 0.00 | 0.00 | 40 | 1019.0 |
| 20260901122211 | 22 | 260 | 22.5 | 0.0 | 0.00 | 0.00 | 0.00 | 43 | |
| 20260901120233 | 22 | 250 | 24.1 | 0.0 | 0.00 | 0.00 | 0.00 | 43 | 1020.0 |
| 20260901113231 | 23 | 250 | 24.1 | 0.0 | 0.00 | 0.00 | 0.00 | 41 | 1020.0 |
| 20260901112257 | 22 | 250 | 22.5 | 0.0 | 0.00 | 0.00 | 0.00 | 43 | |
| 20260901110234 | 22 | 250 | 24.1 | 0.0 | 0.00 | 0.00 | 0.00 | 46 | 1020.0 |
| 20260901103231 | 22 | 250 | 27.4 | 0.0 | 0.00 | 0.00 | 0.00 | 46 | 1020.0 |
| 20260901102525 | 22 | 250 | 25.7 | 0.0 | 0.00 | 0.00 | 0.00 | 46 | |
| 20260901100231 | 21 | 250 | 24.1 | 0.0 | 0.00 | 0.00 | 0.00 | 49 | 1020.0 |
| 20260901093230 | 22 | 240 | 25.7 | 0.0 | 0.00 | 0.00 | 0.00 | 46 | 1020.0 |
| 20260901092211 | 22 | 240 | 29.0 | 0.0 | 0.00 | 0.00 | 0.00 | 46 | |
| 20260901090240 | 22 | 240 | 29.0 | 0.0 | 0.00 | 0.00 | 0.00 | 46 | 1020.0 |
| 20260901083231 | 21 | 240 | 22.5 | 0.0 | 0.00 | 0.00 | 0.00 | 49 | 1019.0 |
| 20260901082430 | 21 | 240 | 19.3 | 0.0 | 0.00 | 0.00 | 0.00 | 52 | |
| 20260901080234 | 20 | 240 | 16.1 | 0.0 | 0.00 | 0.00 | 0.00 | 56 | 1019.0 |
| 20260901073230 | 18 | 230 | 14.5 | 0.0 | 0.00 | 0.00 | 0.00 | 59 | 1019.0 |
| 20260901072426 | 18 | 230 | 19.3 | 0.0 | 0.00 | 0.00 | 0.00 | 63 | |
| 20260901070241 | 18 | 230 | 16.1 | 0.0 | 0.00 | 0.00 | 0.00 | 59 | 1019.0 |
| 20260901063238 | 18 | 220 | 24.1 | 0.0 | 0.00 | 0.00 | 0.00 | 63 | 1018.0 |
| 20260901062226 | 17 | 230 | 22.5 | 0.0 | 0.00 | 0.00 | 0.00 | 67 | |
| 20260901060234 | 17 | 230 | 20.9 | 0.0 | 0.00 | 0.00 | 0.00 | 67 | 1018.0 |
| 20260901053223 | 17 | 230 | 22.5 | 0.0 | 0.00 | 0.00 | 0.00 | 72 | 1018.0 |
| 20260901052310 | 16 | 240 | 14.5 | 0.0 | 0.00 | 0.00 | 0.00 | 77 |